Location: B?dimalle
(17.1788°N, 80.5377°E)
Time: 05:34:51
(UTC+00:00)

Vanguard 1 - Pass Details

Date: 23 February 2026
Orbit: 653 x 3818 km, 34.2° (Epoch: 14 March)

Event Time Altitude Azimuth Distance (km) Brightness Sun altitude
Rises 14:54:18 0° 300° (WNW) 6,444 15.0 -32.1°
Reaches altitude 10° 14:57:57 10° 300° (WNW) 5,753 14.6 -33.0°
Maximum altitude 15:17:57 82° 216° (SW) 3,774 12.7 -37.8°
Enters shadow 15:27:55 48° 136° (SE) 4,512 12.9 -40.1°
